GW3251 Weather Reports


Display with metric or nautical units.
time (UTC)temp
F
wind
direction
speed
MPH
gust
MPH
rain 1hr
in
rain 24hr
in
rain mn
in
humidity
%
barometer
mb
20260905173108 95 0 0.0 0.0 0.00 0.00 0.00 54 1014.4
20260905172540 94 0 0.0 0.0 0.00 0.00 0.00 53 1014.5
20260905172037 95 0 0.0 0.0 0.00 0.00 0.00 53 1014.5
20260905171552 95 0 0.0 8.0 0.00 0.00 0.00 55 1014.7
20260905171040 95 0 0.0 8.0 0.00 0.00 0.00 53 1014.6
20260905170538 94 231 0.0 0.0 0.00 0.00 0.00 57 1014.5
20260905165537 94 0 0.0 1.0 0.00 0.00 0.00 55 1014.7
20260905165038 94 0 0.0 1.0 0.00 0.00 0.00 55 1014.7
20260905164600 94 0 0.0 1.0 0.00 0.00 0.00 59 1014.8
20260905164039 93 0 0.0 0.0 0.00 0.00 0.00 57 1014.7
20260905163537 92 0 0.0 0.0 0.00 0.00 0.00 61 1014.7
20260905163102 92 0 0.0 0.0 0.00 0.00 0.00 63 1014.7
20260905162539 92 0 0.0 0.0 0.00 0.00 0.00 60 1014.9
20260905162038 93 0 0.0 0.0 0.00 0.00 0.00 59 1015.0
20260905161602 92 0 0.0 0.0 0.00 0.00 0.00 63 1014.9
20260905161038 92 0 0.0 0.0 0.00 0.00 0.00 63 1014.8
20260905160537 92 0 0.0 0.0 0.00 0.00 0.00 64 1014.9
20260905160110 93 0 0.0 0.0 0.00 0.00 0.00 65 1014.8
20260905155541 91 0 0.0 0.0 0.00 0.00 0.00 68 1014.6
20260905155037 90 0 0.0 0.0 0.00 0.00 0.00 68 1014.7
20260905154557 89 0 0.0 0.0 0.00 0.00 0.00 70 1014.8
20260905154038 88 0 0.0 0.0 0.00 0.00 0.00 74 1014.8
20260905153537 88 0 0.0 1.0 0.00 0.00 0.00 74 1014.8
20260905153109 88 0 0.0 1.0 0.00 0.00 0.00 71 1014.9
20260905152538 88 0 0.0 0.0 0.00 0.00 0.00 74 1014.9
20260905152037 89 0 0.0 6.0 0.00 0.00 0.00 72 1014.8
20260905151601 89 0 0.0 6.0 0.00 0.00 0.00 74 1014.8
20260905151041 89 0 0.0 2.0 0.00 0.00 0.00 73 1014.9
20260905150537 88 0 0.0 0.0 0.00 0.00 0.00 76 1014.9
20260905145538 87 0 0.0 0.0 0.00 0.00 0.00 78 1014.8
20260905145038 86 0 0.0 0.0 0.00 0.00 0.00 80 1014.8
20260905144553 86 0 0.0 0.0 0.00 0.00 0.00 82 1014.9
20260905144037 85 0 0.0 0.0 0.00 0.00 0.00 82 1014.9
20260905143538 84 0 0.0 0.0 0.00 0.00 0.00 85 1014.9
20260905143100 84 0 0.0 0.0 0.00 0.00 0.00 84 1014.8
20260905142538 83 0 0.0 0.0 0.00 0.00 0.00 87 1014.8
20260905142042 82 0 0.0 0.0 0.00 0.00 0.00 89 1014.8
20260905141614 81 0 0.0 0.0 0.00 0.00 0.00 91 1014.8
20260905141042 80 0 0.0 0.0 0.00 0.00 0.00 93 1014.9
20260905140542 79 0 0.0 0.0 0.00 0.00 0.00 93 1014.6
20260905140106 79 0 0.0 0.0 0.00 0.00 0.00 95 1014.7
20260905135537 78 0 0.0 0.0 0.00 0.00 0.00 95 1014.7
20260905135038 77 0 0.0 0.0 0.00 0.00 0.00 95 1014.6
20260905134607 77 0 0.0 0.0 0.00 0.00 0.00 95 1014.7
20260905134037 77 0 0.0 0.0 0.00 0.00 0.00 95 1014.7
20260905133538 77 0 0.0 0.0 0.00 0.00 0.00 95 1014.6
20260905133103 76 0 0.0 0.0 0.00 0.00 0.00 95 1014.6
20260905132538 76 0 0.0 0.0 0.00 0.00 0.00 95 1014.5
20260905132038 76 0 0.0 0.0 0.00 0.00 0.00 95 1014.5
20260905131606 75 0 0.0 0.0 0.00 0.00 0.00 95 1014.4
20260905131038 75 0 0.0 0.0 0.00 0.00 0.00 95 1014.4
20260905130538 75 0 0.0 0.0 0.00 0.00 0.00 95 1014.3
20260905130104 75 0 0.0 0.0 0.00 0.00 0.00 95 1014.3
20260905125537 74 0 0.0 0.0 0.00 0.00 0.00 95 1014.3
20260905125038 74 0 0.0 0.0 0.00 0.00 0.00 95 1014.1
20260905124558 74 0 0.0 0.0 0.00 0.00 0.00 94 1014.1
20260905124038 74 0 0.0 0.0 0.00 0.00 0.00 94 1014.3
20260905123537 73 0 0.0 0.0 0.00 0.00 0.00 94 1014.2
20260905123100 73 0 0.0 0.0 0.00 0.00 0.00 94 1014.0
20260905122538 73 0 0.0 0.0 0.00 0.00 0.00 94 1014.0
20260905122038 73 0 0.0 0.0 0.00 0.00 0.00 94 1014.0
20260905121602 73 0 0.0 0.0 0.00 0.00 0.00 94 1014.0
20260905121038 73 0 0.0 0.0 0.00 0.00 0.00 94 1013.8
20260905120542 73 0 0.0 0.0 0.00 0.00 0.00 94 1013.7
20260905115541 73 0 0.0 0.0 0.00 0.00 0.00 94 1013.7
20260905115039 73 0 0.0 0.0 0.00 0.00 0.00 94 1013.7
20260905114626 73 0 0.0 0.0 0.00 0.00 0.00 94 1013.8
20260905114038 73 0 0.0 0.0 0.00 0.00 0.00 94 1013.6
20260905113538 73 0 0.0 0.0 0.00 0.00 0.00 94 1013.6
20260905113059 73 0 0.0 0.0 0.00 0.00 0.00 94 1013.5
20260905112538 73 0 0.0 0.0 0.00 0.00 0.00 94 1013.5
20260905112037 73 0 0.0 0.0 0.00 0.00 0.00 94 1013.3
20260905111556 73 0 0.0 0.0 0.00 0.00 0.00 94 1013.4
20260905111038 73 0 0.0 0.0 0.00 0.00 0.00 94 1013.4
20260905110539 73 0 0.0 0.0 0.00 0.00 0.00 94 1013.3
20260905110059 73 0 0.0 0.0 0.00 0.00 0.00 94 1013.4
20260905105537 73 0 0.0 0.0 0.00 0.00 0.00 94 1013.2
20260905105038 74 0 0.0 0.0 0.00 0.00 0.00 94 1013.3
20260905104555 74 0 0.0 0.0 0.00 0.00 0.00 94 1013.1
20260905104037 74 0 0.0 0.0 0.00 0.00 0.00 94 1013.2
20260905103537 74 0 0.0 0.0 0.00 0.00 0.00 94 1013.0
20260905103104 74 0 0.0 0.0 0.00 0.00 0.00 94 1013.2
20260905102537 74 0 0.0 0.0 0.00 0.00 0.00 94 1013.2
20260905102038 74 0 0.0 0.0 0.00 0.00 0.00 94 1013.2
20260905101559 74 0 0.0 0.0 0.00 0.00 0.00 94 1013.1
20260905101037 74 0 0.0 0.0 0.00 0.00 0.00 93 1013.1
20260905100537 74 0 0.0 0.0 0.00 0.00 0.00 93 1013.0
20260905100114 74 0 0.0 0.0 0.00 0.00 0.00 93 1013.2
20260905095537 74 0 0.0 0.0 0.00 0.00 0.00 94 1013.2
20260905095041 74 0 0.0 0.0 0.00 0.00 0.00 94 1013.2
20260905094607 75 0 0.0 0.0 0.00 0.00 0.00 94 1013.1
20260905094037 75 0 0.0 0.0 0.00 0.00 0.00 94 1013.2
20260905093538 75 0 0.0 0.0 0.00 0.00 0.00 93 1013.2
20260905093058 75 0 0.0 0.0 0.00 0.00 0.00 93 1013.1
20260905092539 75 0 0.0 0.0 0.00 0.00 0.00 93 1013.1
20260905092037 75 0 0.0 0.0 0.00 0.00 0.00 93 1013.2
20260905091614 75 0 0.0 0.0 0.00 0.00 0.00 93 1013.2
20260905091038 75 0 0.0 0.0 0.00 0.00 0.00 93 1013.2
20260905090537 75 0 0.0 0.0 0.00 0.00 0.00 93 1013.1
20260905090100 75 0 0.0 0.0 0.00 0.00 0.00 93 1013.1
20260905085538 75 0 0.0 0.0 0.00 0.00 0.00 93 1013.0
20260905085036 75 0 0.0 0.0 0.00 0.00 0.00 93 1013.0
20260905084600 75 0 0.0 0.0 0.00 0.00 0.00 93 1013.0
20260905084038 75 0 0.0 0.0 0.00 0.00 0.00 93 1012.9
20260905083540 75 0 0.0 0.0 0.00 0.00 0.00 93 1012.8
20260905083055 75 0 0.0 0.0 0.00 0.00 0.00 93 1012.9
20260905082538 75 0 0.0 0.0 0.00 0.00 0.00 93 1012.9
20260905082037 75 0 0.0 0.0 0.00 0.00 0.00 93 1012.9
20260905081556 75 0 0.0 0.0 0.00 0.00 0.00 93 1012.9
20260905081038 75 0 0.0 0.0 0.00 0.00 0.00 93 1012.9
20260905080538 75 0 0.0 0.0 0.00 0.00 0.00 92 1012.9
20260905075538 76 0 0.0 0.0 0.00 0.00 0.00 92 1013.1
20260905075038 76 0 0.0 0.0 0.00 0.00 0.00 92 1013.1
20260905074604 76 0 0.0 0.0 0.00 0.00 0.00 92 1013.1
20260905074038 76 0 0.0 0.0 0.00 0.00 0.00 92 1013.2
20260905073537 76 0 0.0 0.0 0.00 0.00 0.00 92 1013.1
20260905073109 76 0 0.0 0.0 0.00 0.00 0.00 92 1013.0
20260905072537 76 0 0.0 0.0 0.00 0.00 0.00 92 1013.2
20260905072037 76 0 0.0 0.0 0.00 0.00 0.00 92 1013.4
20260905071557 76 0 0.0 0.0 0.00 0.00 0.00 92 1013.4
20260905071039 76 0 0.0 0.0 0.00 0.00 0.00 92 1013.5
20260905070538 76 0 0.0 0.0 0.00 0.00 0.00 91 1013.4
20260905070057 76 0 0.0 0.0 0.00 0.00 0.00 91 1013.5
20260905065537 76 0 0.0 0.0 0.00 0.01 0.00 91 1013.4
20260905065041 76 0 0.0 0.0 0.00 0.01 0.00 91 1013.7
20260905064615 76 0 0.0 0.0 0.00 0.01 0.00 91 1013.5
20260905064038 76 0 0.0 0.0 0.00 0.01 0.00 91 1013.6
20260905063538 76 0 0.0 0.0 0.00 0.01 0.00 91 1013.6
20260905063101 76 0 0.0 0.0 0.00 0.01 0.00 91 1013.5
20260905062537 76 0 0.0 0.0 0.00 0.01 0.00 91 1013.5
20260905062038 76 0 0.0 0.0 0.00 0.01 0.00 91 1013.6
20260905061617 76 0 0.0 0.0 0.00 0.01 0.00 90 1013.6
20260905061039 76 0 0.0 0.0 0.00 0.01 0.00 90 1013.6
20260905060538 76 0 0.0 0.0 0.00 0.01 0.00 90 1013.7
20260905060105 76 0 0.0 0.0 0.00 0.01 0.00 90 1013.6
20260905055538 76 0 0.0 0.0 0.00 0.02 0.00 90 1013.5
20260905055040 76 0 0.0 0.0 0.00 0.02 0.00 90 1013.5
20260905054601 77 0 0.0 0.0 0.00 0.02 0.00 90 1013.6
20260905054038 77 0 0.0 0.0 0.00 0.02 0.00 90 1013.7
20260905053538 77 0 0.0 0.0 0.00 0.02 0.00 89 1013.7
20260905053100 77 0 0.0 0.0 0.00 0.02 0.00 89 1013.6
20260905052539 77 0 0.0 0.0 0.00 0.02 0.00 89 1013.6
20260905052038 77 0 0.0 0.0 0.00 0.02 0.00 89 1013.7
20260905051609 77 0 0.0 0.0 0.00 0.02 0.00 89 1013.7
20260905051038 77 0 0.0 0.0 0.00 0.02 0.00 89 1013.5
20260905050537 77 0 0.0 0.0 0.00 0.02 0.00 89 1013.6
20260905050108 77 0 0.0 0.0 0.00 0.02 0.00 89 1013.6
20260905045538 77 0 0.0 0.0 0.00 0.02 0.02 89 1013.7
20260905045038 78 0 0.0 0.0 0.00 0.02 0.02 88 1013.7
20260905044559 78 0 0.0 0.0 0.00 0.02 0.02 88 1013.8
20260905044039 78 0 0.0 0.0 0.00 0.02 0.02 88 1013.6
20260905043538 78 0 0.0 0.0 0.00 0.02 0.02 88 1013.7
20260905043103 78 0 0.0 0.0 0.00 0.02 0.02 88 1013.6
20260905042539 78 0 0.0 0.0 0.00 0.02 0.02 88 1013.8
20260905042038 78 0 0.0 0.0 0.00 0.02 0.02 88 1013.8
20260905041603 78 0 0.0 0.0 0.00 0.02 0.02 88 1013.7
20260905041037 78 0 0.0 0.0 0.00 0.02 0.02 88 1013.7
20260905040537 78 0 0.0 0.0 0.00 0.02 0.02 87 1013.8
20260905035538 78 0 0.0 0.0 0.00 0.02 0.02 88 1013.9
20260905035037 78 0 0.0 0.0 0.00 0.02 0.02 88 1013.8
20260905034611 78 0 0.0 0.0 0.00 0.02 0.02 88 1013.9
20260905034038 78 0 0.0 0.0 0.00 0.02 0.02 88 1013.9
20260905033538 78 0 0.0 0.0 0.00 0.02 0.02 88 1013.9
20260905033108 78 0 0.0 0.0 0.00 0.02 0.02 88 1013.8
20260905032538 78 0 0.0 0.0 0.00 0.02 0.02 88 1013.9
20260905032038 78 0 0.0 0.0 0.00 0.02 0.02 88 1014.0
20260905031608 78 0 0.0 0.0 0.00 0.02 0.02 88 1014.0
20260905031036 78 0 0.0 0.0 0.00 0.02 0.02 88 1013.9
20260905030538 78 0 0.0 0.0 0.00 0.02 0.02 87 1013.9
20260905030100 78 0 0.0 0.0 0.00 0.02 0.02 88 1013.9
20260905025537 78 0 0.0 0.0 0.00 0.02 0.02 87 1013.9
20260905025040 78 0 0.0 0.0 0.00 0.02 0.02 87 1013.8
20260905024557 78 0 0.0 0.0 0.00 0.02 0.02 87 1013.7
20260905024037 78 0 0.0 0.0 0.00 0.02 0.02 87 1013.8
20260905023539 78 0 0.0 0.0 0.00 0.02 0.02 87 1013.7
20260905023127 78 0 0.0 0.0 0.00 0.02 0.02 87 1013.7
20260905022537 78 0 0.0 0.0 0.00 0.02 0.02 87 1013.6
20260905022037 78 0 0.0 0.0 0.00 0.02 0.02 87 1013.6
20260905021555 78 0 0.0 0.0 0.00 0.02 0.02 87 1013.6
20260905021038 79 0 0.0 0.0 0.00 0.02 0.02 86 1013.6
20260905020538 79 0 0.0 0.0 0.00 0.02 0.02 86 1013.5
20260905020106 79 0 0.0 0.0 0.00 0.02 0.02 86 1013.5
20260905015538 79 0 0.0 0.0 0.00 0.02 0.02 85 1013.4
20260905015041 79 0 0.0 0.0 0.00 0.02 0.02 85 1013.3
20260905014611 80 0 0.0 0.0 0.00 0.02 0.02 85 1013.4
20260905014038 80 0 0.0 0.0 0.00 0.02 0.02 84 1013.2
20260905013539 80 0 0.0 0.0 0.00 0.02 0.02 84 1013.2
20260905013101 80 0 0.0 0.0 0.00 0.02 0.02 83 1013.2
20260905012538 81 0 0.0 0.0 0.00 0.02 0.02 83 1013.2
20260905012039 81 0 0.0 0.0 0.00 0.02 0.02 81 1013.0
20260905011605 81 0 0.0 0.0 0.00 0.02 0.02 81 1013.1
20260905011039 82 0 0.0 0.0 0.00 0.02 0.02 80 1013.1
20260905010539 82 0 0.0 0.0 0.00 0.02 0.02 79 1013.0
20260905005541 83 0 0.0 0.0 0.00 0.02 0.02 77 1012.9
20260905005039 83 0 0.0 0.0 0.00 0.02 0.02 76 1012.9
20260905004600 83 0 0.0 0.0 0.00 0.02 0.02 75 1012.6
20260905004038 84 0 0.0 0.0 0.00 0.02 0.02 74 1012.5
20260905003540 84 0 0.0 0.0 0.00 0.02 0.02 73 1012.5
20260905003103 85 0 0.0 0.0 0.00 0.02 0.02 72 1012.4
20260905002539 85 0 0.0 0.0 0.00 0.02 0.02 72 1012.5
20260905002042 86 0 0.0 0.0 0.00 0.02 0.02 70 1012.5
20260905001609 86 0 0.0 0.0 0.00 0.02 0.02 69 1012.6
20260905001039 86 0 0.0 0.0 0.00 0.02 0.02 68 1012.4
20260905000539 87 0 0.0 0.0 0.00 0.02 0.02 67 1012.5
20260905000119 87 0 0.0 0.0 0.00 0.02 0.02 66 1012.4
20260904235538 87 0 0.0 0.0 0.00 0.02 0.02 66 1012.4
20260904235038 88 0 0.0 1.0 0.00 0.02 0.02 65 1012.4
20260904234602 88 0 0.0 1.0 0.00 0.02 0.02 64 1012.4
20260904234038 88 0 0.0 1.0 0.00 0.02 0.02 65 1012.3
20260904233539 88 0 0.0 0.0 0.00 0.02 0.02 63 1012.5
20260904233057 88 0 0.0 0.0 0.00 0.02 0.02 63 1012.4
20260904232538 88 0 0.0 0.0 0.00 0.02 0.02 63 1012.5
20260904232038 89 0 0.0 5.0 0.00 0.02 0.02 60 1012.4
20260904231603 89 0 0.0 5.0 0.00 0.02 0.02 60 1012.4
20260904231038 90 0 0.0 0.0 0.00 0.02 0.02 60 1012.4
20260904230538 90 0 0.0 0.0 0.00 0.02 0.02 61 1012.4
20260904230101 90 0 0.0 0.0 0.00 0.02 0.02 63 1012.3
20260904225537 90 0 0.0 0.0 0.00 0.02 0.02 59 1012.3
20260904225038 91 0 0.0 5.0 0.00 0.02 0.02 60 1012.4
20260904224605 91 0 0.0 5.0 0.00 0.02 0.02 61 1012.4
20260904224038 91 0 0.0 0.0 0.00 0.02 0.02 60 1012.4
20260904223538 91 0 0.0 0.0 0.00 0.02 0.02 60 1012.4
20260904223059 91 0 0.0 0.0 0.00 0.02 0.02 60 1012.5
20260904222537 91 0 0.0 0.0 0.00 0.02 0.02 59 1012.5
20260904222037 91 0 0.0 0.0 0.00 0.02 0.02 58 1012.5
20260904221605 92 0 0.0 4.0 0.00 0.02 0.02 55 1012.6
20260904221039 92 0 0.0 4.0 0.00 0.02 0.02 59 1012.5
20260904220538 92 0 0.0 0.0 0.00 0.02 0.02 57 1012.6
20260904220119 92 0 0.0 7.0 0.00 0.02 0.02 58 1012.7
20260904215538 91 0 0.0 7.0 0.00 0.02 0.02 59 1012.9
20260904215040 91 143 0.0 0.0 0.00 0.02 0.02 61 1013.0
20260904214604 91 0 0.0 0.0 0.00 0.02 0.02 63 1013.0
20260904214037 91 0 0.0 0.0 0.00 0.02 0.02 68 1013.2
20260904213542 90 0 0.0 0.0 0.00 0.02 0.02 70 1013.0
20260904213056 90 0 0.0 0.0 0.00 0.02 0.02 68 1013.2
20260904212541 90 0 0.0 0.0 0.00 0.02 0.02 67 1013.2
20260904212040 91 0 0.0 0.0 0.00 0.02 0.02 67 1013.4
20260904211601 91 0 0.0 10.0 0.00 0.02 0.02 67 1013.5
20260904211037 91 0 0.0 10.0 0.00 0.02 0.02 68 1013.4
20260904210538 92 0 0.0 6.0 0.00 0.02 0.02 68 1013.3
20260904210118 91 197 0.0 5.0 0.00 0.02 0.02 68 1013.4
20260904205538 91 0 0.0 3.0 0.00 0.02 0.02 70 1013.4
20260904205038 91 0 0.0 9.0 0.00 0.02 0.02 71 1013.4
20260904204557 89 0 0.0 10.0 0.00 0.02 0.02 72 1013.6
20260904204040 89 0 0.0 10.0 0.00 0.02 0.02 73 1013.7
20260904203538 88 0 0.0 7.0 0.00 0.02 0.02 75 1013.7
20260904203053 88 0 0.0 7.0 0.00 0.02 0.02 75 1013.8
20260904202537 87 0 0.0 0.0 0.00 0.02 0.02 77 1013.9
20260904202038 87 0 0.0 0.0 0.00 0.02 0.02 78 1014.0
20260904201602 87 0 0.0 5.0 0.00 0.02 0.02 78 1014.1
20260904201037 86 0 0.0 9.0 0.00 0.02 0.02 79 1014.1
20260904200538 86 0 0.0 9.0 0.00 0.02 0.02 79 1013.9
20260904200059 86 0 0.0 3.0 0.00 0.02 0.02 81 1014.0
20260904195539 86 0 0.0 9.0 0.00 0.02 0.02 79 1013.9
20260904195037 86 0 0.0 9.0 0.00 0.02 0.02 81 1013.9
20260904194608 86 0 0.0 7.0 0.00 0.02 0.02 79 1014.1
20260904194040 86 112 0.0 7.0 0.00 0.02 0.02 80 1014.1
20260904193538 87 0 0.0 7.0 0.00 0.02 0.02 80 1014.1
20260904193115 86 0 0.0 1.0 0.00 0.02 0.02 80 1013.9
20260904192537 86 0 0.0 1.0 0.00 0.02 0.02 80 1013.8
20260904192037 86 0 0.0 0.0 0.00 0.02 0.02 81 1014.1
20260904191557 86 0 0.0 0.0 0.00 0.02 0.02 82 1014.1
20260904191038 86 0 0.0 0.0 0.00 0.02 0.02 82 1014.0
20260904190538 86 0 0.0 0.0 0.00 0.02 0.02 82 1014.3
20260904190059 86 0 0.0 0.0 0.00 0.02 0.02 82 1014.3
20260904185537 86 0 0.0 1.0 0.00 0.02 0.02 83 1014.4
20260904185037 86 0 0.0 8.0 0.00 0.02 0.02 83 1014.5
20260904184607 86 0 0.0 8.0 0.00 0.02 0.02 84 1014.6
20260904184038 85 0 0.0 0.0 0.00 0.02 0.02 84 1014.6
20260904183538 85 0 0.0 0.0 0.00 0.02 0.02 85 1014.6
20260904183053 85 0 0.0 0.0 0.00 0.02 0.02 83 1014.7
20260904182537 86 0 0.0 0.0 0.00 0.02 0.02 82 1014.8
20260904182037 86 0 0.0 6.0 0.00 0.02 0.02 80 1014.9
20260904181609 87 0 0.0 6.0 0.00 0.02 0.02 79 1014.9
20260904181037 87 156 0.0 0.0 0.00 0.02 0.02 78 1015.0
20260904180540 87 0 0.0 0.0 0.00 0.02 0.02 78 1015.0
20260904180116 87 0 0.0 0.0 0.00 0.02 0.02 77 1014.9
20260904175537 88 0 0.0 0.0 0.00 0.02 0.02 76 1014.8
20260904175038 88 0 0.0 0.0 0.00 0.02 0.02 76 1014.9
20260904174609 88 0 0.0 0.0 0.00 0.02 0.02 76 1015.0
20260904174036 88 0 0.0 0.0 0.00 0.02 0.02 76 1015.0
20260904173538 88 0 0.0 0.0 0.00 0.02 0.02 75 1015.1